When you browse on this site, cookies collect data to enhance your experience and personalize the content and advertising you see.
Visit our Privacy Policy to learn more. By continuing to use the site, you agree to this use of cookies and data.
  • In Hungary
  • List of Countries
  • For 7 days
  • Water Temperature
  • Weather Map
  • News
  • Weather Widgets
  • user-avatar
    Login

    Hourly Weather Ural

    Today, 14 October, Monday

    Time Temperature Precipitation Wind Pressure Humidity
    00:00 +9°C° 0.4 mm 8 mps 744 mmHg 78%
    01:00 +8°C° 0.4 mm 9 mps 743 mmHg 83%
    02:00 +9°C° 1.5 mm 8 mps 743 mmHg 86%
    03:00 +9°C° 1.5 mm 7 mps 743 mmHg 89%
    04:00 +9°C° 1.5 mm 7 mps 743 mmHg 92%
    05:00 +9°C° 1.4 mm 6 mps 742 mmHg 90%
    06:00 +9°C° 1.4 mm 6 mps 742 mmHg 87%
    07:00 +9°C° 1.4 mm 6 mps 742 mmHg 85%
    08:00 +10°C° 0.1 mm 6 mps 742 mmHg 79%
    09:00 +10°C° 0.1 mm 6 mps 743 mmHg 74%
    10:00 +11°C° 0.1 mm 7 mps 743 mmHg 69%
    11:00 +11°C° 0 mm 7 mps 744 mmHg 65%
    12:00 +12°C° 0 mm 7 mps 744 mmHg 61%
    13:00 +12°C° 0 mm 8 mps 744 mmHg 56%
    14:00 +12°C° 0.1 mm 7 mps 745 mmHg 57%
    15:00 +12°C° 0.1 mm 7 mps 745 mmHg 58%
    16:00 +11°C° 0.1 mm 7 mps 746 mmHg 58%
    17:00 +11°C° 0 mm 7 mps 746 mmHg 64%
    18:00 +10°C° 0 mm 6 mps 747 mmHg 70%
    19:00 +9°C° 0 mm 5 mps 747 mmHg 75%
    20:00 +9°C° 0 mm 5 mps 747 mmHg 75%
    21:00 +8°C° 0 mm 5 mps 748 mmHg 75%
    22:00 +8°C° 0 mm 5 mps 748 mmHg 75%
    23:00 +8°C° 0 mm 5 mps 748 mmHg 75%

    Tomorrow, 15 October, Tuesday

    Time Temperature Precipitation Wind Pressure Humidity
    00:00 +8°C° 0 mm 5 mps 748 mmHg 75%
    01:00 +8°C° 0 mm 5 mps 748 mmHg 74%
    02:00 +8°C° 0 mm 5 mps 749 mmHg 78%
    03:00 +7°C° 0 mm 5 mps 749 mmHg 81%
    04:00 +7°C° 0 mm 5 mps 749 mmHg 85%
    05:00 +7°C° 0 mm 5 mps 749 mmHg 87%
    06:00 +7°C° 0 mm 4 mps 749 mmHg 88%
    07:00 +6°C° 0 mm 4 mps 748 mmHg 90%
    08:00 +7°C° 0 mm 5 mps 748 mmHg 86%
    09:00 +8°C° 0 mm 6 mps 748 mmHg 82%
    10:00 +9°C° 0 mm 6 mps 747 mmHg 78%
    11:00 +10°C° 0.3 mm 7 mps 747 mmHg 76%
    12:00 +11°C° 0.3 mm 8 mps 746 mmHg 73%
    13:00 +12°C° 0.3 mm 8 mps 745 mmHg 70%
    14:00 +13°C° 0 mm 9 mps 744 mmHg 70%
    15:00 +14°C° 0 mm 10 mps 744 mmHg 70%
    16:00 +16°C° 0 mm 10 mps 743 mmHg 70%
    17:00 +16°C° 0 mm 10 mps 743 mmHg 70%
    18:00 +16°C° 0 mm 10 mps 742 mmHg 70%
    19:00 +16°C° 0 mm 10 mps 742 mmHg 70%
    20:00 +16°C° 0 mm 9 mps 742 mmHg 70%
    21:00 +15°C° 0 mm 8 mps 742 mmHg 70%
    22:00 +15°C° 0 mm 7 mps 742 mmHg 70%
    23:00 +14°C° 0 mm 7 mps 742 mmHg 74%

    Day after tomorrow, 16 October, Wednesday

    Time Temperature Precipitation Wind Pressure Humidity
    00:00 +12°C° 0 mm 7 mps 742 mmHg 79%
    01:00 +11°C° 0 mm 7 mps 742 mmHg 83%
    02:00 +10°C° 0 mm 7 mps 743 mmHg 84%
    03:00 +9°C° 0 mm 6 mps 744 mmHg 85%
    04:00 +7°C° 0 mm 6 mps 744 mmHg 85%
    05:00 +7°C° 0 mm 5 mps 745 mmHg 85%
    06:00 +6°C° 0 mm 4 mps 745 mmHg 85%
    07:00 +5°C° 0 mm 3 mps 746 mmHg 85%
    08:00 +7°C° 0 mm 3 mps 747 mmHg 80%
    09:00 +7°C° 0 mm 4 mps 747 mmHg 75%
    10:00 +7°C° 0 mm 4 mps 748 mmHg 70%
    11:00 +8°C° 0 mm 5 mps 748 mmHg 65%
    12:00 +8°C° 0 mm 6 mps 748 mmHg 61%
    13:00 +8°C° 0 mm 7 mps 749 mmHg 56%
    14:00 +7°C° 0 mm 6 mps 749 mmHg 57%
    15:00 +7°C° 0 mm 6 mps 750 mmHg 58%
    16:00 +5°C° 0 mm 6 mps 750 mmHg 59%
    17:00 +5°C° 0 mm 5 mps 751 mmHg 61%
    18:00 +5°C° 0 mm 5 mps 751 mmHg 63%
    19:00 +5°C° 0 mm 4 mps 752 mmHg 65%
    20:00 +4°C° 0 mm 3 mps 752 mmHg 68%
    21:00 +3°C° 0 mm 3 mps 753 mmHg 72%
    22:00 +3°C° 0 mm 3 mps 753 mmHg 75%
    23:00 +3°C° 0 mm 2 mps 753 mmHg 76%

    17 October, Thursday

    Time Temperature Precipitation Wind Pressure Humidity
    00:00 +3°C° 0 mm 2 mps 754 mmHg 77%
    01:00 +2°C° 0 mm 2 mps 754 mmHg 78%
    02:00 +2°C° 0 mm 2 mps 754 mmHg 80%
    03:00 +3°C° 0 mm 1 mps 755 mmHg 81%
    04:00 +2°C° 0 mm 1 mps 755 mmHg 82%
    05:00 +2°C° 0 mm 1 mps 755 mmHg 83%
    06:00 +2°C° 0 mm 1 mps 756 mmHg 84%
    07:00 +2°C° 0 mm 1 mps 756 mmHg 85%
    08:00 +3°C° 0 mm 1 mps 756 mmHg 77%
    09:00 +3°C° 0 mm 2 mps 756 mmHg 70%
    10:00 +4°C° 0 mm 2 mps 756 mmHg 63%
    11:00 +5°C° 0 mm 2 mps 756 mmHg 59%
    12:00 +5°C° 0 mm 3 mps 756 mmHg 55%
    13:00 +7°C° 0 mm 3 mps 756 mmHg 51%
    14:00 +7°C° 0 mm 3 mps 756 mmHg 51%
    15:00 +7°C° 0 mm 3 mps 756 mmHg 51%
    16:00 +7°C° 0 mm 3 mps 755 mmHg 51%
    17:00 +7°C° 0 mm 2 mps 755 mmHg 54%
    18:00 +6°C° 0 mm 2 mps 755 mmHg 58%
    19:00 +6°C° 0 mm 1 mps 755 mmHg 61%
    20:00 +6°C° 0 mm 1 mps 755 mmHg 61%
    21:00 +5°C° 0 mm 2 mps 755 mmHg 62%
    22:00 +5°C° 0 mm 2 mps 754 mmHg 62%
    23:00 +4°C° 0 mm 3 mps 754 mmHg 62%

    18 October, Friday

    Time Temperature Precipitation Wind Pressure Humidity
    00:00 +4°C° 0 mm 3 mps 753 mmHg 61%
    01:00 +5°C° 0 mm 3 mps 753 mmHg 60%
    02:00 +4°C° 0 mm 3 mps 752 mmHg 60%
    03:00 +4°C° 0 mm 3 mps 752 mmHg 59%
    04:00 +4°C° 0 mm 4 mps 751 mmHg 58%
    05:00 +4°C° 0 mm 4 mps 751 mmHg 58%
    06:00 +4°C° 0 mm 4 mps 750 mmHg 58%
    07:00 +3°C° 0 mm 5 mps 750 mmHg 58%
    08:00 +5°C° 0 mm 6 mps 749 mmHg 56%
    09:00 +6°C° 0 mm 7 mps 749 mmHg 55%
    10:00 +9°C° 0 mm 8 mps 748 mmHg 54%
    11:00 +10°C° 0 mm 8 mps 748 mmHg 52%
    12:00 +11°C° 0 mm 8 mps 747 mmHg 50%
    13:00 +12°C° 0 mm 8 mps 746 mmHg 49%
    14:00 +12°C° 0 mm 8 mps 746 mmHg 49%
    15:00 +11°C° 0 mm 7 mps 745 mmHg 49%
    16:00 +11°C° 0 mm 7 mps 744 mmHg 49%
    17:00 +11°C° 0 mm 7 mps 744 mmHg 48%
    18:00 +10°C° 0 mm 7 mps 744 mmHg 47%
    19:00 +10°C° 0 mm 6 mps 744 mmHg 46%
    20:00 +8°C° 0.2 mm 7 mps 744 mmHg 57%
    21:00 +5°C° 0.2 mm 7 mps 745 mmHg 69%
    22:00 +3°C° 0.2 mm 7 mps 745 mmHg 80%
    23:00 +2°C° 0 mm 7 mps 745 mmHg 77%

    19 October, Saturday

    Time Temperature Precipitation Wind Pressure Humidity
    00:00 +1°C° 0 mm 6 mps 746 mmHg 73%
    01:00 -1°C° 0 mm 6 mps 746 mmHg 70%
    02:00 -2°C° 0 mm 6 mps 747 mmHg 70%
    03:00 -2°C° 0 mm 7 mps 747 mmHg 70%
    04:00 -2°C° 0 mm 7 mps 748 mmHg 70%
    05:00 -3°C° 0 mm 7 mps 748 mmHg 72%
    06:00 -3°C° 0 mm 7 mps 749 mmHg 73%
    07:00 -4°C° 0 mm 6 mps 749 mmHg 74%
    08:00 -3°C° 0 mm 7 mps 750 mmHg 70%
    09:00 -2°C° 0 mm 7 mps 750 mmHg 65%
    10:00 -1°C° 0 mm 7 mps 751 mmHg 60%
    11:00 0°C° 0 mm 7 mps 751 mmHg 57%
    12:00 +2°C° 0 mm 7 mps 752 mmHg 54%
    13:00 +3°C° 0 mm 7 mps 753 mmHg 51%
    14:00 +2°C° 0 mm 7 mps 753 mmHg 52%
    15:00 +2°C° 0 mm 6 mps 753 mmHg 52%
    16:00 +2°C° 0 mm 6 mps 753 mmHg 53%
    17:00 +1°C° 0 mm 5 mps 754 mmHg 57%
    18:00 0°C° 0 mm 4 mps 755 mmHg 62%
    19:00 0°C° 0 mm 3 mps 755 mmHg 66%
    20:00 -1°C° 0 mm 3 mps 756 mmHg 68%
    21:00 -1°C° 0 mm 2 mps 756 mmHg 70%
    22:00 -2°C° 0 mm 2 mps 756 mmHg 73%
    23:00 0°C° 0 mm 1 mps 756 mmHg 72%
    Show more